Theta_e
325 325 325 324 325 325 325 325 325 325 325 324 323 323 323 322 319 322 317 319 322 330 326 322 321 318 318 313 316 314 303 302 305 306 307 312 310 314 315 312 314 316 321 326 329
325 325 326 325 325 324 324 324 324 324 325 324 323 322 322 321 319 318 320 332 331 332 321 315 314 314 312 313 313 309 304 305 309 310 309 311 310 311 311 311 312 313 320 326 327
325 325 325 325 325 324 323 322 323 324 324 323 322 322 321 320 316 316 329 331 330 327 322 318 315 313 309 312 312 310 305 309 309 310 311 309 310 312 309 308 312 312 315 320 322
324 324 324 324 325 323 322 321 322 323 324 323 323 323 322 319 305 319 328 331 331 323 319 316 313 309 307 307 311 306 309 309 309 311 310 308 311 309 310 310 314 316 320 319 318
322 322 323 324 324 323 321 321 321 322 323 323 323 323 319 313 313 321 330 326 321 319 314 314 310 309 306 308 309 307 308 310 311 311 310 311 308 309 309 313 314 316 318 317 319
321 321 322 322 322 322 321 320 320 321 322 322 323 320 315 307 322 323 321 319 317 317 316 315 313 314 310 309 308 311 311 310 311 310 311 309 308 310 311 314 314 316 317 319 319
320 321 321 321 321 321 320 319 319 320 321 322 323 319 314 312 322 323 320 317 319 318 315 318 318 313 313 308 312 311 306 308 309 310 309 311 306 307 312 314 315 316 317 318 319
319 320 319 320 319 319 319 318 318 320 321 322 322 318 309 321 323 321 320 317 320 318 316 318 319 314 312 314 310 306 306 301 308 310 310 309 302 311 314 314 314 315 317 318 319
317 317 318 318 318 318 318 317 318 320 321 321 317 315 308 320 316 320 321 315 315 316 316 315 315 311 311 305 303 305 299 302 305 310 309 308 305 312 315 315 314 315 316 318 319
316 317 317 317 317 316 315 317 318 319 319 319 317 310 313 310 316 318 319 317 313 312 310 308 308 305 306 304 295 299 301 303 303 308 309 307 307 311 314 314 315 315 316 317 317
314 316 317 317 316 315 316 316 311 308 312 307 307 308 309 316 316 313 316 313 311 309 302 306 301 299 302 305 305 304 303 303 306 309 308 308 306 309 313 314 314 314 315 316 318
312 315 316 316 316 315 319 309 309 312 302 310 310 310 313 314 307 311 317 307 305 301 305 303 299 304 307 308 306 305 303 303 306 308 308 307 306 310 312 313 314 314 314 316 318
313 315 315 315 315 314 314 313 317 316 304 306 309 309 310 312 306 307 313 308 303 302 303 299 304 307 306 305 304 304 303 303 302 307 309 306 304 306 311 313 314 314 316 316 318
312 313 314 313 309 314 310 318 318 318 297 298 304 307 311 310 303 311 316 309 306 302 303 302 306 306 305 303 306 300 307 306 305 303 298 307 296 305 309 309 310 312 314 316 319
310 312 313 314 313 310 314 318 316 314 282 299 304 314 310 305 304 305 316 312 305 305 305 301 304 304 304 305 307 303 309 307 306 303 302 301 298 302 308 306 307 311 314 317 320
310 311 312 312 314 317 319 315 308 289 280 297 303 302 301 304 303 305 308 314 312 306 307 306 311 308 307 309 308 309 306 305 305 302 295 300 299 300 303 306 308 311 314 316 319
310 310 311 314 307 318 317 308 287 282 295 295 297 300 300 299 300 301 301 302 301 296 297 302 304 308 310 305 308 306 302 293 292 292 292 301 299 301 307 310 310 310 313 316 318
310 309 310 313 316 315 310 296 282 289 291 301 300 299 296 299 299 299 299 299 304 301 298 295 293 304 308 305 302 302 302 294 288 290 294 301 295 300 310 311 312 313 314 315 317
309 306 306 310 316 314 302 285 286 293 297 298 299 295 295 298 298 298 297 299 303 304 295 295 295 305 307 307 307 302 298 304 298 300 295 297 301 305 310 309 310 311 312 313 316
303 302 302 311 314 309 297 287 292 299 299 298 294 298 293 295 295 296 296 302 302 305 306 300 294 303 305 308 307 305 308 297 299 289 288 294 296 297 303 305 307 308 310 312 315
303 293 304 308 305 301 287 288 294 301 301 296 298 297 299 297 298 296 295 300 305 305 305 302 300 300 305 302 300 301 299 302 302 298 291 288 294 307 306 306 306 307 310 311 313
299 286 305 304 288 292 287 290 298 299 302 300 302 302 300 301 298 299 297 300 307 306 301 303 301 295 299 306 308 306 302 302 295 293 296 295 296 310 310 310 310 308 310 311 313
293 294 306 300 284 285 289 293 298 298 299 300 298 302 304 301 297 301 302 306 309 306 304 304 297 293 294 301 305 301 303 303 303 301 295 292 295 310 310 310 311 309 310 311 312
294 285 292 296 292 288 286 290 293 300 300 302 301 304 301 300 303 300 301 307 309 309 307 306 301 298 292 296 300 298 301 303 301 294 295 296 300 305 306 307 310 310 311 311 311
294 288 293 285 285 287 290 291 291 293 300 303 300 300 299 296 298 298 303 304 308 307 307 305 297 300 301 302 301 301 300 301 299 300 296 298 299 304 307 308 310 311 311 310 310
286 288 294 291 292 288 286 289 291 295 297 297 298 300 302 297 299 297 299 304 302 306 304 306 297 300 298 302 300 298 300 301 302 302 301 302 301 309 310 311 310 310 311 310 310
301 299 293 292 290 287 286 288 293 298 300 302 301 300 299 301 306 307 307 306 305 304 302 301 298 296 292 299 298 293 299 300 301 303 303 298 304 309 308 308 309 310 311 311 311
Wind_Speed
18 18 18 19 14 12 11 10 8 7 7 8 10 13 14 15 22 17 15 2 3 8 11 14 16 12 8 12 7 10 6 11 12 13 11 6 3 8 1 3 2 2 6 9 7
20 19 18 18 15 13 12 10 9 8 7 8 9 12 14 13 16 18 4 2 6 8 11 9 10 6 10 9 5 9 10 7 11 12 12 8 2 6 3 6 3 3 10 9 5
22 20 19 18 16 14 13 11 10 9 7 8 9 12 13 15 12 4 3 2 5 8 12 10 10 12 14 12 10 10 14 7 8 7 8 6 2 5 4 7 5 5 6 3 3
23 21 20 18 17 15 13 11 10 9 7 8 9 11 13 7 6 6 6 1 4 9 12 9 8 10 11 12 12 5 14 3 5 3 4 3 5 8 7 8 6 3 2 4 7
22 22 21 20 18 15 13 11 11 9 8 7 8 10 8 9 16 8 5 6 8 10 9 7 8 10 12 8 6 12 12 4 5 4 6 8 10 10 10 9 4 4 2 7 4
22 22 21 20 19 16 14 12 11 9 8 7 7 10 7 15 2 9 9 5 10 7 8 8 6 8 9 7 8 6 8 8 9 9 10 11 10 10 9 9 4 8 6 4 4
18 23 22 21 19 16 14 12 10 9 7 6 7 7 13 18 1 6 4 9 3 8 7 2 7 8 5 8 5 7 10 12 15 14 12 2 12 20 13 9 9 11 10 6 6
13 20 22 21 19 17 14 12 10 8 7 6 6 9 11 13 18 22 9 7 4 2 5 2 6 10 8 8 5 6 11 9 14 20 9 6 12 17 14 10 8 10 5 4 6
14 11 20 21 19 17 15 12 10 8 5 6 6 9 14 1 15 15 14 13 10 7 3 4 6 8 6 8 8 11 9 15 17 15 12 12 7 8 13 11 10 8 9 3 2
17 11 11 22 20 18 16 14 9 7 6 9 11 9 16 15 12 17 18 15 12 9 6 5 6 7 8 10 10 11 18 17 14 13 8 11 13 11 13 13 12 4 7 2 5
20 14 9 16 23 22 20 11 9 8 19 13 13 13 9 19 3 14 14 18 15 14 13 16 9 14 19 17 17 18 15 14 14 11 11 11 10 14 17 18 7 7 8 8 5
22 14 11 10 22 29 22 20 27 5 11 26 25 23 23 6 10 14 17 17 19 20 18 13 19 19 17 18 19 18 16 15 16 15 15 14 14 15 17 20 10 9 7 8 9
22 17 13 8 19 21 26 31 17 17 7 20 32 24 15 15 14 19 22 23 21 20 20 22 10 22 20 16 14 13 14 14 17 15 9 7 17 19 22 20 9 6 8 8 7
21 18 16 12 10 15 24 22 22 16 7 14 17 18 28 17 15 24 24 22 16 23 22 22 22 20 20 20 15 16 16 18 17 11 13 11 16 17 13 16 11 11 9 8 7
23 20 19 17 7 14 15 19 3 2 10 15 29 12 19 27 8 26 24 22 21 16 22 17 21 22 17 18 16 14 6 10 9 11 14 15 13 11 12 14 15 14 12 10 12
25 25 19 12 9 7 13 10 6 6 11 9 23 25 29 30 20 18 26 21 18 20 19 22 14 16 20 15 13 9 8 7 10 10 13 15 15 11 15 15 18 16 13 11 10
22 24 19 10 11 9 15 10 10 7 2 10 32 29 32 29 30 15 27 26 20 19 20 19 21 13 8 16 13 12 8 4 4 8 10 11 15 15 12 8 22 20 16 13 11
19 21 19 13 8 14 4 13 16 10 23 11 21 21 31 29 32 29 26 25 27 24 14 19 18 25 16 21 14 17 15 7 9 10 14 15 12 13 4 7 18 17 16 13 12
16 10 12 12 13 17 18 15 14 16 27 10 17 22 24 28 17 26 29 27 26 29 21 19 22 18 22 21 21 18 23 17 14 14 7 7 12 5 6 10 16 16 16 14 14
10 9 12 7 10 14 17 13 19 20 23 24 19 20 23 31 25 27 29 29 29 30 20 11 14 22 26 25 24 24 13 14 9 9 13 11 15 10 13 14 16 17 17 16 14
9 6 4 12 3 14 15 13 15 26 13 31 21 19 22 24 30 29 24 17 33 31 26 13 8 13 19 25 20 16 19 14 12 13 8 6 7 10 13 21 19 18 17 16 15
9 7 8 11 9 5 9 10 16 22 22 9 13 22 20 25 26 27 34 30 24 25 35 28 10 15 21 17 23 22 24 23 10 15 17 9 2 10 6 14 12 15 16 16 16
7 7 7 9 11 5 2 12 20 24 22 19 19 14 16 20 14 26 23 24 15 29 27 25 10 10 8 18 19 24 18 20 16 10 18 12 4 2 16 15 16 14 16 15 16
6 7 4 8 2 5 8 14 15 26 22 19 21 15 17 14 17 17 22 16 8 17 24 25 12 21 16 17 14 22 22 22 20 16 12 17 13 14 8 7 10 13 15 18 16
6 5 6 7 5 4 10 17 22 17 20 23 18 16 13 10 10 6 16 19 15 15 14 21 19 19 18 11 25 22 24 25 26 21 20 14 21 14 9 11 9 10 15 17 18
5 5 7 4 8 17 8 16 24 25 22 28 16 25 23 16 15 16 20 14 16 16 11 7 16 13 16 19 13 25 25 26 23 23 23 21 24 12 14 8 10 15 16 7 10
6 7 2 7 9 7 12 11 22 27 23 26 28 23 23 24 21 22 18 4 3 17 18 17 6 14 11 17 4 11 21 19 20 20 18 19 18 10 12 9 10 11 5 17 12
Wind_Direction
224 230 226 233 216 216 227 234 239 251 275 302 316 317 318 324 314 297 246 44 20 341 326 272 263 250 239 255 234 269 259 256 279 275 107 99 178 122 79 285 107 68 47 85 107
219 224 225 222 221 212 217 225 233 247 268 292 309 314 315 332 307 281 110 135 24 5 320 335 315 314 250 238 226 225 239 313 8 22 80 111 22 31 294 206 217 191 122 138 154
217 219 223 222 220 217 207 218 221 238 258 285 307 314 313 325 295 241 157 50 16 302 278 295 283 270 269 234 231 250 243 29 67 21 12 17 307 272 282 276 309 36 5 331 304
218 214 216 219 218 215 210 205 216 225 244 277 302 314 317 292 273 94 155 230 292 287 285 275 263 255 250 249 229 273 264 303 309 93 316 295 313 287 302 291 333 57 7 291 263
217 213 210 212 214 209 211 203 207 216 233 266 297 318 319 240 256 137 187 200 253 258 271 278 270 252 254 250 246 238 268 230 284 241 256 270 265 268 263 265 177 227 291 260 323
219 213 207 208 208 205 203 201 198 208 225 256 288 318 241 260 270 148 223 234 256 246 242 239 278 354 302 304 267 4 313 294 272 244 239 244 257 241 249 220 182 216 228 258 272
244 213 208 202 202 195 196 190 195 197 213 245 280 280 262 241 125 139 232 243 266 265 233 21 335 283 339 249 281 279 275 268 242 234 228 238 262 243 225 175 221 230 193 201 291
275 231 205 200 196 186 182 180 178 195 202 240 283 268 255 260 245 258 233 222 208 203 332 16 312 284 266 308 254 244 235 260 256 200 155 168 284 304 174 174 220 250 224 198 236
274 290 218 193 185 179 164 162 163 177 203 225 246 227 257 129 222 237 213 224 195 214 239 319 275 253 203 233 257 219 251 230 236 173 157 188 271 339 163 190 219 239 275 251 67
264 268 278 194 183 167 144 144 144 141 226 215 251 238 248 238 221 223 219 223 225 206 235 223 226 229 217 223 218 233 218 240 249 173 192 228 263 258 268 258 239 213 268 262 195
261 242 246 229 176 155 136 131 169 210 206 202 185 220 299 204 305 196 201 199 211 201 211 196 211 210 219 215 240 265 290 293 299 310 292 221 239 267 268 262 233 194 221 220 179
237 237 234 244 186 162 170 195 192 137 200 227 254 214 246 186 212 222 193 187 196 209 214 217 227 226 228 236 235 243 260 261 276 282 273 282 277 274 268 266 213 222 180 234 194
218 224 222 225 212 172 190 201 195 239 253 196 217 227 221 217 230 207 187 201 199 209 208 222 215 218 238 228 238 245 246 258 272 290 268 256 268 260 256 252 148 163 224 186 188
212 211 207 195 167 199 200 195 231 221 257 223 204 230 214 203 242 234 187 193 210 216 213 227 235 246 208 229 208 236 236 245 256 273 262 263 273 294 268 173 160 184 201 170 112
203 211 206 189 138 204 184 200 8 116 226 208 192 168 191 198 148 201 182 211 213 210 204 211 212 227 229 218 215 234 299 306 279 263 277 256 270 251 248 184 182 183 185 145 148
207 203 204 207 191 241 160 135 66 203 205 227 164 185 186 196 221 171 190 211 224 228 229 231 201 219 228 233 223 246 242 262 262 264 249 245 249 260 242 193 179 174 165 152 146
209 204 195 194 208 166 158 155 186 218 165 221 168 174 193 190 200 201 191 192 204 205 220 223 222 196 219 218 220 212 183 218 223 219 252 240 238 231 244 277 177 161 155 158 157
202 206 207 219 204 181 200 169 207 182 192 249 162 183 195 189 200 213 189 195 214 204 194 205 213 215 192 210 195 204 196 193 226 235 259 241 229 238 320 165 144 148 154 158 162
189 202 208 210 186 179 189 204 187 194 200 224 157 183 195 201 186 203 210 203 204 200 214 197 224 179 206 204 217 189 216 229 273 285 280 240 278 106 151 125 138 155 156 167 172
189 199 217 193 220 188 205 207 198 206 186 209 191 200 192 199 195 195 207 200 207 210 214 224 219 225 194 197 217 235 200 211 234 233 243 232 235 248 178 163 162 166 172 176 176
178 195 193 187 228 196 202 201 205 206 185 195 191 199 208 195 203 194 207 204 197 196 212 225 234 210 197 201 191 206 232 224 211 229 230 254 258 238 233 172 181 178 178 177 180
182 200 174 156 216 235 195 176 213 206 218 217 197 227 209 208 207 212 214 203 192 204 200 204 226 229 219 221 207 210 216 221 209 210 230 252 178 102 89 164 184 186 183 183 188
184 188 144 137 213 229 209 202 209 206 196 192 196 232 256 218 208 216 221 209 209 196 212 178 219 221 237 227 217 222 214 213 224 230 233 216 172 25 188 184 184 197 194 191 194
170 170 229 177 173 192 184 187 194 209 204 194 197 220 223 241 215 213 221 221 224 229 210 179 175 212 210 214 176 211 222 209 212 221 229 237 237 224 153 201 175 188 194 190 196
176 187 196 189 176 200 203 170 199 184 209 191 201 206 221 218 224 247 224 216 200 233 183 186 202 200 222 198 193 199 210 209 213 216 223 226 246 244 180 192 224 210 202 201 195
137 162 192 273 186 204 210 200 197 197 182 199 195 199 217 228 213 199 239 206 201 203 188 182 207 220 236 230 204 211 213 219 218 220 228 228 245 231 251 262 198 203 232 235 230
174 200 67 218 205 228 211 228 199 200 206 199 207 198 212 226 225 240 188 164 288 191 187 181 145 199 225 220 94 240 246 204 212 230 241 241 250 242 246 260 274 273 218 202 238